Location: Fontevrault
(47.1823°N, 0.0493°E)
Time: 04:10:18
(UTC+00:00)

Cosmos 2100 Rocket - Visible Passes

Search period start: 18 October 2021 00:00
Search period end: 28 October 2021 00:00
Orbit: 957 x 1000 km, 82.9° (Epoch: 17 October)

Date Brightness Start Highest point End Pass type
(mag) Time Alt. Az. Time Alt. Az. Time Alt. Az.
18 Oct 6.5 05:41:21 10° NNE 05:46:06 21° ENE 05:50:48 10° ESE visible
18 Oct 5.4 19:23:25 23° NE 19:23:25 23° NE 19:25:58 10° NNE visible
18 Oct 5.6 21:08:06 30° NNW 21:08:06 30° NNW 21:11:39 10° N visible
19 Oct 4.9 19:48:56 35° NNE 19:48:56 35° NNE 19:52:34 10° NNE visible
19 Oct 6.0 21:33:37 24° NW 21:33:37 24° NW 21:37:26 10° NNW visible
20 Oct 6.9 04:50:28 10° NE 04:52:20 11° NE 04:54:12 10° ENE visible
20 Oct 5.5 18:29:36 17° ENE 18:29:36 17° ENE 18:32:01 10° NE visible
20 Oct 4.5 20:14:16 51° N 20:14:16 51° N 20:18:54 10° N visible
20 Oct 6.4 21:58:55 15° WNW 21:59:05 15° WNW 22:02:40 10° NNW visible
21 Oct 6.6 05:14:50 10° NNE 05:19:18 19° ENE 05:23:43 10° ESE visible
21 Oct 4.7 18:54:33 31° ENE 18:54:33 31° ENE 18:59:11 10° NNE visible
21 Oct 4.9 20:39:09 46° WNW 20:39:09 46° WNW 20:45:01 10° N visible
22 Oct 6.0 05:40:23 10° N 05:46:02 32° ENE 05:51:37 10° SE visible
22 Oct 4.0 19:13:32 10° SSE 19:19:39 56° E 19:25:50 10° NNE visible
22 Oct 5.7 21:00:08 10° SW 21:05:28 28° WNW 21:10:51 10° N visible
23 Oct 7.2 04:25:15 10° NE 04:25:29 10° NE 04:25:43 10° NE visible
23 Oct 5.3 17:57:29 10° ESE 18:01:16 17° ENE 18:05:05 10° NE visible
23 Oct 3.9 19:39:28 10° S 19:45:48 87° W 19:52:13 10° N visible
23 Oct 6.4 21:28:18 10° W 21:32:15 17° WNW 21:36:14 10° NNW visible
24 Oct 6.7 04:48:21 10° NNE 04:52:29 18° ENE 04:56:35 10° ESE visible
24 Oct 4.7 18:21:44 10° SE 18:27:01 29° E 18:32:22 10° NNE visible
24 Oct 4.7 20:06:01 10° SSW 20:12:09 52° WNW 20:18:22 10° N visible
25 Oct 6.1 05:13:47 10° N 05:19:16 29° ENE 05:24:41 10° SE visible
25 Oct 4.1 18:46:56 10° SSE 18:52:58 50° E 18:59:06 10° NNE visible
25 Oct 5.6 20:33:11 10° SW 20:38:41 31° WNW 20:44:16 10° N visible
26 Oct 5.1 05:39:39 10° N 05:45:50 49° ENE 05:51:55 10° SSE visible
26 Oct 5.4 17:31:17 10° ESE 17:34:40 15° ENE 17:38:03 10° NE visible
26 Oct 3.9 19:12:46 10° S 19:19:06 86° E 19:25:31 10° N visible
26 Oct 6.3 21:01:09 10° WSW 21:05:26 19° WNW 21:09:46 10° NNW visible
27 Oct 6.7 04:21:54 10° NNE 04:25:40 16° ENE 04:29:24 10° E visible
27 Oct 4.9 17:55:17 10° SE 18:00:25 27° E 18:05:33 10° NNE visible
27 Oct 4.6 19:39:12 10° SSW 19:45:24 57° WNW 19:51:43 10° N visible
27 Oct 6.9 21:30:59 10° WNW 21:32:25 11° NW 21:33:51 10° NW visible
